[[{"header":{"parameterUnit":"m.s-1","parameterCategory":1,"la1":30.2991,"la2":30.254,"lo1":-89.0895,"lo2":-89.0444,"dy":0.0017,"dx":0.0017,"nx":28,"ny":28,"refTime":"2024-02-27T03:00:00:Z","depth":0,"parameterNumber":2,"parameterNumberName":"U-component_of_WINDS"},"data":[0,0,0,0,0,0,0,0,0,0,0,0,0,0,0,0,0,0,0,0,0,0,0,0,0,0,0,0,0,0,0,0,0,0,0,0,0,0,0,0,0,0,0,0,0,0,0,0,0,0,0,0,0,0,0,0,0,0,0.1504,0.1502,0,0.1357,0.1355,0.1354,0.1279,0.1279,0.1279,0.1279,0.1127,0.1123,0.1119,0,0,0,0,0,0,0,0,0,0,0,0,0,0.1719,0.1715,0.1504,0.1502,0.15,0.1357,0.1355,0.1353,0.1279,0.1279,0.1279,0.1279,0.1128,0.1123,0.1119,0,0,0,0,0,0,0,0,0,0,0,0,0,0.1604,0.1714,0.1504,0.1446,0.1439,0.1358,0.1355,0.1353,0.1279,0.1279,0.1279,0.1278,0.113,0.1124,0.1118,0.1083,0,0,0.11,0.1097,0,0,0,0,0,0,0,0,0.1611,0.1596,0.1456,0.145,0.1442,0.1336,0.1375,0.1262,0.1279,0.134,0.1279,0.1278,0.1196,0.1185,0.1157,0.1076,0.1069,0.1099,0.1095,0.1093,0.1091,0,0,0,0,0,0,0,0.1619,0.1602,0.1446,0.1454,0.1446,0.1427,0.141,0.1353,0.127,0.1334,0.1329,0.1312,0.1192,0.1163,0.1153,0.1067,0.1099,0.1094,0.109,0.1088,0.0949,0.0949,0,0,0,0,0,0,0.1636,0.1609,0.145,0.1441,0.1528,0.1423,0.1404,0.137,0.1271,0.1255,0.1313,0.1309,0.1174,0.116,0.1148,0.11,0.1093,0.1087,0.1084,0.0949,0.0949,0.0949,0,0,0,0,0,0,0.1641,0.1623,0.1456,0.1524,0.1501,0.1419,0.1381,0.1367,0.1338,0.1254,0.1239,0.1298,0.1173,0.1156,0.11,0.1094,0.1085,0.1079,0.0949,0.0949,0.0949,0.1005,0,0,0,0,0,0,0.1648,0.1625,0.1611,0.1524,0.1498,0.1411,0.1381,0.1365,0.1328,0.1323,0.1237,0.1222,0.1172,0.1109,0.1094,0.1085,0.1075,0.0949,0.0949,0.0949,0.1003,0.1007,0.101,0,0,0,0,0,0.1655,0.1632,0.1611,0.1592,0.1479,0.1411,0.1396,0.1339,0.1328,0.1313,0.1259,0.1225,0.1097,0.1104,0.1086,0.1076,0.0949,0.0949,0.0949,0.1002,0.1006,0.101,0,0,0,0,0,0,0.172,0.162,0.1595,0.1543,0.1486,0.1399,0.1378,0.1345,0.129,0.1287,0.1217,0.1199,0.1148,0.1106,0.1116,0.1037,0.102,0.1016,0.1066,0.1069,0.1073,0.1084,0.107,0,0,0,0,0,0.1729,0.1683,0.1597,0.156,0.1533,0.1461,0.1429,0.139,0.1328,0.1303,0.1245,0.1186,0.1132,0.1098,0.1044,0.0997,0.0977,0.0981,0.0984,0.0987,0.0985,0.0956,0.0957,0.0948,0.0948,0.0948,0,0,0.1746,0.1685,0.166,0.1571,0.1523,0.1476,0.1441,0.1393,0.1358,0.1296,0.1239,0.1194,0.1124,0.1072,0.1046,0.1035,0.0983,0.0987,0.099,0.0986,0.0956,0.0957,0.0958,0.0948,0.0948,0.0948,0,0,0.1752,0.1702,0.1665,0.1617,0.1545,0.1497,0.1488,0.1405,0.1373,0.1315,0.1268,0.1225,0.1134,0.1086,0.1049,0.1038,0.1005,0.1022,0.1039,0.1013,0.1013,0.1014,0.101,0.1009,0.102,0.102,0.102,0,0.1782,0.1711,0.1651,0.1605,0.1568,0.151,0.1472,0.1429,0.1342,0.1317,0.1306,0.1191,0.1139,0.1075,0.1073,0.1045,0.1033,0.1032,0.1018,0.1018,0.1017,0.1013,0.1011,0.1023,0.1023,0.1022,0.1022,0,0.1751,0.1702,0.1681,0.1599,0.1559,0.1518,0.1451,0.1418,0.1382,0.1335,0.1277,0.1213,0.1145,0.1127,0.1092,0.1058,0.1053,0.1032,0.1013,0.1022,0.1016,0.1014,0.1027,0.1026,0.1025,0.1024,0,0,0.1795,0.168,0.1674,0.1636,0.1551,0.1512,0.1468,0.1402,0.1375,0.1317,0.1278,0.1203,0.1182,0.1141,0.1099,0.1076,0.1071,0.1056,0.1053,0.1061,0.103,0.1047,0.1046,0.1048,0.1048,0.1047,0.1036,0,0.179,0.1709,0.1653,0.1594,0.1548,0.1493,0.1454,0.1398,0.1353,0.1308,0.1258,0.1205,0.1182,0.1157,0.1131,0.1077,0.1064,0.1077,0.1011,0.101,0.1031,0.1043,0.1061,0.1054,0.1033,0.1033,0.1033,0,0.1773,0.1717,0.1654,0.1574,0.1553,0.152,0.1455,0.1411,0.1346,0.1315,0.127,0.1227,0.1178,0.1165,0.1096,0.1106,0.1076,0.1046,0.1044,0.1036,0.1022,0.1035,0.105,0.1049,0.1029,0.1029,0.1029,0,0.1812,0.1721,0.1671,0.164,0.1546,0.1524,0.1484,0.1418,0.1382,0.1325,0.1301,0.124,0.1206,0.1159,0.1101,0.1096,0.1038,0.1019,0.1011,0.1012,0.1001,0.1003,0.1011,0.0982,0.0982,0.0982,0.0982,0,0.1812,0.1775,0.1687,0.1656,0.1613,0.155,0.1509,0.1464,0.1406,0.1366,0.1314,0.1277,0.1202,0.1156,0.111,0.1061,0.1045,0.1019,0.1007,0.1024,0.1027,0.1003,0.1002,0.0981,0.0982,0.0982,0.0982,0,0.1848,0.1787,0.1729,0.1645,0.1623,0.1595,0.1523,0.1491,0.1443,0.1393,0.1377,0.1302,0.1245,0.1183,0.1104,0.1073,0.1026,0.1009,0.1049,0.1042,0.1037,0.1039,0.103,0.1026,0.1,0.1001,0.1001,0,0.1852,0.1823,0.1736,0.1705,0.1666,0.1617,0.158,0.1516,0.148,0.1404,0.1381,0.132,0.1268,0.1179,0.1118,0.1058,0.1039,0.104,0.103,0.1047,0.1039,0.1042,0.1038,0.1044,0.1044,0.1045,0.1045,0,0.1867,0.1838,0.1787,0.1726,0.1683,0.1632,0.1578,0.1556,0.1481,0.1443,0.1384,0.1344,0.1264,0.1204,0.1136,0.1094,0.1057,0.1049,0.1044,0.106,0.1084,0.1072,0.1058,0.105,0.1049,0.1049,0.1049,0.1048,0.1887,0.1858,0.1793,0.1737,0.169,0.1641,0.1607,0.1556,0.1506,0.1436,0.1401,0.1343,0.1278,0.1183,0.1142,0.1095,0.1084,0.1077,0.1075,0.1074,0.1078,0.1092,0.1083,0.1083,0.1082,0.1082,0.1082,0,0.1899,0.1854,0.1804,0.1731,0.1687,0.1657,0.1595,0.1561,0.1511,0.1454,0.1403,0.1336,0.1277,0.1212,0.1149,0.1124,0.1106,0.111,0.1111,0.1102,0.1092,0.1103,0.1126,0.1126,0.1126,0.1126,0.1126,0.1126,0.19,0.185,0.1814,0.174,0.1694,0.1637,0.1605,0.1559,0.1513,0.1441,0.1392,0.1349,0.1288,0.1221,0.1166,0.1148,0.1128,0.1137,0.1114,0.1106,0.1103,0.1099,0.1109,0.1133,0.1133,0.1128,0.1128,0.1128]},{"header":{"parameterUnit":"m.s-1","parameterCategory":1,"la1":30.2991,"la2":30.254,"lo1":-89.0895,"lo2":-89.0444,"dy":0.0017,"dx":0.0017,"nx":28,"ny":28,"refTime":"2024-02-27T03:00:00:Z","depth":0,"parameterNumber":3,"parameterNumberName":"V-component_of_WINDS"},"data":[0,0,0,0,0,0,0,0,0,0,0,0,0,0,0,0,0,0,0,0,0,0,0,0,0,0,0,0,0,0,0,0,0,0,0,0,0,0,0,0,0,0,0,0,0,0,0,0,0,0,0,0,0,0,0,0,0,0,4.8194,4.8193,0,4.8095,4.8094,4.8093,4.8032,4.8032,4.8031,4.8031,4.7931,4.7929,4.7926,0,0,0,0,0,0,0,0,0,0,0,0,0,4.8333,4.8331,4.8195,4.8193,4.8192,4.8096,4.8094,4.8093,4.8032,4.8032,4.8031,4.8031,4.7932,4.7929,4.7926,0,0,0,0,0,0,0,0,0,0,0,0,0,4.8258,4.833,4.8195,4.815,4.8145,4.8096,4.8094,4.8092,4.8032,4.8032,4.8031,4.8031,4.7933,4.7929,4.7926,4.7914,0,0,4.7915,4.7913,0,0,0,0,0,0,0,0,4.8262,4.8252,4.8158,4.8153,4.8147,4.8075,4.8106,4.8033,4.8032,4.8075,4.8031,4.803,4.7979,4.7972,4.7955,4.7909,4.7905,4.7914,4.7912,4.7911,4.791,0,0,0,0,0,0,0,4.8267,4.8256,4.8155,4.8157,4.815,4.8136,4.8124,4.8092,4.8031,4.8071,4.8067,4.8056,4.7977,4.7958,4.7952,4.7903,4.7915,4.7911,4.7909,4.7908,4.7845,4.7846,0,0,0,0,0,0,4.8279,4.8261,4.8158,4.8152,4.8205,4.8134,4.8121,4.8099,4.8031,4.8021,4.8056,4.8053,4.7964,4.7956,4.7948,4.7931,4.7911,4.7908,4.7905,4.7845,4.7845,4.7846,0,0,0,0,0,0,4.8283,4.8271,4.8162,4.8205,4.8191,4.8132,4.8108,4.8097,4.8079,4.802,4.8009,4.8048,4.7964,4.7953,4.7923,4.7927,4.7906,4.7903,4.7844,4.7845,4.7846,4.7896,0,0,0,0,0,0,4.8287,4.8272,4.8266,4.8206,4.8188,4.8138,4.8108,4.8096,4.8073,4.8068,4.801,4.8,4.7962,4.7929,4.792,4.7921,4.79,4.7844,4.7845,4.7845,4.7894,4.7899,4.7903,0,0,0,0,0,4.8292,4.8284,4.8266,4.8254,4.818,4.8139,4.8129,4.8086,4.8073,4.8067,4.803,4.8002,4.7928,4.7926,4.7915,4.7916,4.7843,4.7844,4.7845,4.7892,4.7898,4.7903,0,0,0,0,0,0,4.8346,4.8275,4.8255,4.8227,4.819,4.8128,4.812,4.8093,4.8058,4.8055,4.8004,4.7991,4.7967,4.7938,4.7938,4.7902,4.7882,4.7881,4.7922,4.7927,4.7931,4.7939,4.7897,0,0,0,0,0,4.8355,4.8327,4.8267,4.8249,4.8231,4.8179,4.8159,4.8129,4.8088,4.8072,4.8032,4.7994,4.7963,4.7943,4.791,4.789,4.7877,4.7885,4.789,4.7893,4.7893,4.7883,4.7886,4.7849,4.7849,4.7849,0,0,4.8373,4.8331,4.8316,4.8259,4.8226,4.8199,4.8166,4.8138,4.8118,4.8068,4.8038,4.8008,4.7962,4.7937,4.7924,4.7913,4.7901,4.7895,4.7898,4.7896,4.7884,4.7888,4.7891,4.785,4.785,4.785,0,0,4.8393,4.8357,4.8339,4.8307,4.8258,4.8224,4.822,4.8163,4.8141,4.811,4.8073,4.8049,4.7995,4.7964,4.7942,4.7952,4.7926,4.7943,4.7966,4.7956,4.7959,4.7961,4.7967,4.7969,4.7943,4.7943,4.7943,0,4.8421,4.8379,4.8333,4.8308,4.8285,4.8238,4.8221,4.8192,4.8135,4.8121,4.8108,4.8041,4.8007,4.7976,4.7979,4.7961,4.7956,4.795,4.7962,4.7964,4.7966,4.797,4.7972,4.7946,4.7946,4.7945,4.7945,0,4.8417,4.8389,4.838,4.8327,4.8302,4.8281,4.8233,4.8214,4.8187,4.8155,4.8125,4.8082,4.8041,4.8032,4.8005,4.7997,4.7992,4.7972,4.7951,4.7972,4.7976,4.7977,4.795,4.7949,4.7948,4.7947,0,0,4.8467,4.839,4.8388,4.8364,4.8308,4.8285,4.8263,4.8223,4.8209,4.8172,4.8153,4.8109,4.8091,4.8065,4.8035,4.8026,4.804,4.8007,4.8005,4.8016,4.8032,4.8048,4.8051,4.8022,4.8022,4.8022,4.8036,0,4.8479,4.8436,4.8395,4.8367,4.8341,4.8298,4.8279,4.8243,4.8213,4.8188,4.8154,4.8125,4.8102,4.8087,4.8076,4.8041,4.8043,4.8039,4.8005,4.8005,4.8019,4.8052,4.8069,4.8085,4.8037,4.8037,4.8037,0,4.8486,4.8452,4.8422,4.8371,4.8358,4.8342,4.8303,4.8279,4.8238,4.8217,4.819,4.8158,4.8134,4.8116,4.8083,4.8082,4.8066,4.8047,4.8046,4.8042,4.8023,4.8051,4.8088,4.8091,4.8039,4.8039,4.8039,0,4.8528,4.8474,4.845,4.8431,4.8369,4.8359,4.8333,4.8292,4.8272,4.8238,4.8225,4.8189,4.817,4.8144,4.8104,4.8094,4.8077,4.8054,4.806,4.8061,4.8058,4.8059,4.8095,4.8046,4.8046,4.8046,4.8046,0,4.8546,4.853,4.8468,4.8453,4.8434,4.8388,4.8371,4.8341,4.8306,4.8285,4.8246,4.8228,4.8176,4.8152,4.8121,4.81,4.8091,4.8075,4.8067,4.8079,4.8081,4.8068,4.8067,4.8047,4.8047,4.8047,4.8046,0,4.8589,4.8547,4.8518,4.8463,4.8449,4.8437,4.8391,4.8376,4.8344,4.8319,4.831,4.826,4.8231,4.8188,4.8145,4.8125,4.8109,4.8095,4.8123,4.8118,4.8127,4.8127,4.8157,4.8159,4.8108,4.8108,4.8109,0,4.8604,4.8591,4.8535,4.8518,4.8494,4.8468,4.8447,4.8402,4.8382,4.8336,4.8327,4.8294,4.8266,4.8221,4.8181,4.8149,4.8136,4.8148,4.8131,4.8144,4.8138,4.814,4.8139,4.8153,4.8154,4.8154,4.8155,0,4.8635,4.8616,4.8587,4.8552,4.8528,4.8498,4.8466,4.8455,4.8404,4.8384,4.8353,4.8331,4.8288,4.8257,4.822,4.8195,4.8167,4.8161,4.816,4.8173,4.819,4.8183,4.8136,4.816,4.816,4.8159,4.8159,4.8159,4.8666,4.8653,4.8612,4.8582,4.8554,4.8526,4.8509,4.8476,4.8449,4.8411,4.8386,4.8357,4.8319,4.8267,4.8243,4.8221,4.8209,4.8208,4.8208,4.8209,4.8215,4.8193,4.8214,4.8213,4.8213,4.8213,4.8213,0,4.8696,4.8669,4.8642,4.8599,4.8576,4.8552,4.8516,4.8499,4.8474,4.844,4.8414,4.838,4.835,4.8309,4.8277,4.8267,4.8254,4.8261,4.8261,4.8257,4.8226,4.823,4.8272,4.8272,4.8272,4.8272,4.8272,4.8272,4.871,4.8687,4.8663,4.8627,4.8599,4.8571,4.8553,4.8528,4.8501,4.8465,4.844,4.8414,4.8378,4.8343,4.8316,4.8304,4.8295,4.8306,4.8292,4.8264,4.8258,4.8253,4.8257,4.8304,4.8304,4.8324,4.8324,4.8325]}]]